TimeCST,TemperatureF,Dew PointF,Humidity,Sea Level PressureIn,VisibilityMPH,Wind Direction,Wind SpeedMPH,Gust SpeedMPH,PrecipitationIn,Events,Conditions,WindDirDegrees,DateUTC
12:15 AM,7.3,-0.2,71,30.28,10.0,NW,12.7,16.1,N/A,,Clear,320,2013-02-20 06:15:00
12:55 AM,6.8,-0.9,71,30.29,10.0,NW,10.4,17.3,N/A,,Clear,310,2013-02-20 06:55:00
1:15 AM,6.8,-0.8,71,30.29,10.0,NW,10.4,-,N/A,,Clear,320,2013-02-20 07:15:00
1:35 AM,6.6,-0.6,72,30.31,10.0,NW,8.1,-,N/A,,Clear,320,2013-02-20 07:35:00
1:55 AM,6.6,-0.9,71,30.31,10.0,NNW,6.9,-,N/A,,Clear,330,2013-02-20 07:55:00
2:15 AM,6.4,-1.3,71,30.32,10.0,NW,5.8,-,N/A,,Clear,310,2013-02-20 08:15:00
2:35 AM,6.8,-0.8,71,30.32,10.0,WNW,8.1,-,N/A,,Clear,300,2013-02-20 08:35:00
2:55 AM,6.6,-0.8,72,30.32,10.0,NW,6.9,-,N/A,,Clear,310,2013-02-20 08:55:00
3:15 AM,6.8,-1.1,70,30.33,10.0,WNW,6.9,-,N/A,,Clear,300,2013-02-20 09:15:00
3:35 AM,6.8,-0.9,71,30.33,10.0,NW,8.1,-,N/A,,Clear,310,2013-02-20 09:35:00
3:55 AM,6.8,-1.3,69,30.34,10.0,NW,9.2,-,N/A,,Clear,310,2013-02-20 09:55:00
4:15 AM,6.8,-0.8,71,30.33,10.0,NW,8.1,-,N/A,,Clear,320,2013-02-20 10:15:00
4:35 AM,6.6,-0.4,73,30.33,10.0,NW,6.9,-,N/A,,Clear,320,2013-02-20 10:35:00
4:55 AM,6.8,-0.6,72,30.34,10.0,NW,6.9,-,N/A,,Clear,320,2013-02-20 10:55:00
5:15 AM,6.6,-0.9,71,30.34,10.0,NW,5.8,-,N/A,,Clear,320,2013-02-20 11:15:00
5:35 AM,6.4,-1.3,71,30.34,10.0,NNW,6.9,-,N/A,,Clear,330,2013-02-20 11:35:00
5:55 AM,6.4,-1.3,71,30.34,10.0,NW,8.1,-,N/A,,Clear,320,2013-02-20 11:55:00
6:15 AM,5.7,-1.3,73,30.34,10.0,NNW,4.6,-,N/A,,Clear,330,2013-02-20 12:15:00
6:35 AM,5.9,-1.3,72,30.34,10.0,NW,5.8,-,N/A,,Clear,320,2013-02-20 12:35:00
6:55 AM,5.9,-1.3,72,30.35,10.0,NW,5.8,-,N/A,,Clear,320,2013-02-20 12:55:00
7:15 AM,6.6,-1.1,71,30.35,10.0,NW,6.9,-,N/A,,Clear,320,2013-02-20 13:15:00
7:55 AM,8.2,-0.0,69,30.37,10.0,NW,5.8,-,N/A,,Clear,320,2013-02-20 13:55:00
8:15 AM,9.3,1.2,70,30.37,10.0,NNW,5.8,-,N/A,,Clear,330,2013-02-20 14:15:00
8:35 AM,10.4,1.9,69,30.38,10.0,WNW,8.1,-,N/A,,Clear,300,2013-02-20 14:35:00
9:35 AM,13.3,4.1,67,30.39,10.0,NNW,8.1,-,N/A,,Clear,340,2013-02-20 15:35:00
9:55 AM,13.8,3.9,65,30.39,10.0,NNW,8.1,-,N/A,,Clear,330,2013-02-20 15:55:00
10:15 AM,14.7,5.2,66,30.39,10.0,NNW,6.9,-,N/A,,Clear,340,2013-02-20 16:15:00
10:35 AM,15.8,6.1,66,30.39,10.0,North,5.8,-,N/A,,Clear,350,2013-02-20 16:35:00
10:55 AM,16.7,6.4,64,30.39,10.0,WNW,5.8,-,N/A,,Clear,300,2013-02-20 16:55:00
11:15 AM,17.1,7.0,65,30.39,10.0,West,4.6,-,N/A,,Clear,280,2013-02-20 17:15:00
11:35 AM,17.6,7.3,64,30.36,10.0,WSW,5.8,-,N/A,,Clear,250,2013-02-20 17:35:00
11:55 AM,18.5,8.4,65,30.39,10.0,WSW,6.9,-,N/A,,Clear,250,2013-02-20 17:55:00
12:15 PM,19.4,9.3,65,30.41,10.0,WSW,6.9,-,N/A,,Clear,240,2013-02-20 18:15:00
12:35 PM,20.1,9.7,64,30.41,10.0,WSW,6.9,-,N/A,,Clear,250,2013-02-20 18:35:00
12:55 PM,20.5,10.8,66,30.41,10.0,WSW,8.1,-,N/A,,Clear,250,2013-02-20 18:55:00
1:15 PM,20.7,10.9,66,30.41,10.0,West,6.9,-,N/A,,Clear,270,2013-02-20 19:15:00
1:35 PM,21.9,12.2,66,30.39,10.0,West,5.8,-,N/A,,Clear,280,2013-02-20 19:35:00
1:55 PM,22.1,12.0,65,30.38,10.0,West,6.9,-,N/A,,Clear,280,2013-02-20 19:55:00
2:15 PM,22.8,12.0,63,30.36,10.0,WNW,4.6,-,N/A,,Clear,290,2013-02-20 20:15:00
2:35 PM,23.4,12.7,64,30.35,10.0,West,3.5,-,N/A,,Clear,270,2013-02-20 20:35:00
2:55 PM,24.6,13.3,62,30.34,10.0,NNW,4.6,-,N/A,,Clear,330,2013-02-20 20:55:00
3:15 PM,25.0,12.4,59,30.34,10.0,NNW,4.6,-,N/A,,Clear,330,2013-02-20 21:15:00
3:35 PM,25.3,13.1,60,30.33,10.0,NNW,4.6,-,N/A,,Clear,340,2013-02-20 21:35:00
3:55 PM,25.7,13.5,60,30.33,10.0,North,8.1,-,N/A,,Clear,10,2013-02-20 21:55:00
4:15 PM,25.7,13.3,59,30.34,10.0,North,5.8,-,N/A,,Clear,10,2013-02-20 22:15:00
4:35 PM,25.2,13.5,61,30.34,10.0,NNE,6.9,-,N/A,,Clear,20,2013-02-20 22:35:00
4:55 PM,24.1,12.7,62,30.34,10.0,NNE,5.8,-,N/A,,Clear,30,2013-02-20 22:55:00
5:15 PM,22.6,12.6,65,30.34,10.0,NNE,4.6,-,N/A,,Clear,20,2013-02-20 23:15:00
5:35 PM,21.2,12.6,69,30.35,10.0,NNE,5.8,-,N/A,,Clear,30,2013-02-20 23:35:00
5:55 PM,20.8,12.7,71,30.35,10.0,NNE,6.9,-,N/A,,Clear,30,2013-02-20 23:55:00
6:15 PM,19.4,12.0,73,30.35,10.0,NNE,8.1,-,N/A,,Clear,30,2013-02-21 00:15:00
6:35 PM,19.6,12.2,73,30.35,10.0,NNE,6.9,-,N/A,,Clear,30,2013-02-21 00:35:00
6:55 PM,18.9,12.0,75,30.35,10.0,NNE,6.9,-,N/A,,Clear,20,2013-02-21 00:55:00
7:15 PM,17.8,11.3,76,30.35,10.0,NNE,6.9,-,N/A,,Clear,20,2013-02-21 01:15:00
7:35 PM,18.1,11.3,75,30.35,10.0,North,3.5,-,N/A,,Clear,10,2013-02-21 01:35:00
7:55 PM,17.2,11.1,77,30.35,10.0,NNE,3.5,-,N/A,,Clear,30,2013-02-21 01:55:00
8:15 PM,17.4,11.1,76,30.35,10.0,Calm,Calm,-,N/A,,Clear,0,2013-02-21 02:15:00
8:35 PM,17.6,11.8,78,30.35,10.0,Calm,Calm,-,N/A,,Clear,0,2013-02-21 02:35:00
8:55 PM,17.1,12.2,81,30.35,10.0,Calm,Calm,-,N/A,,Clear,0,2013-02-21 02:55:00
9:15 PM,16.7,11.8,81,30.35,10.0,Calm,Calm,-,N/A,,Clear,0,2013-02-21 03:15:00
9:35 PM,15.8,12.2,86,30.36,10.0,Calm,Calm,-,N/A,,Clear,0,2013-02-21 03:35:00
9:55 PM,15.6,12.2,86,30.36,10.0,Calm,Calm,-,N/A,,Clear,0,2013-02-21 03:55:00
10:15 PM,15.8,12.2,86,30.37,10.0,Calm,Calm,-,N/A,,Clear,0,2013-02-21 04:15:00
10:35 PM,16.5,12.2,83,30.38,10.0,Calm,Calm,-,N/A,,Clear,0,2013-02-21 04:35:00
10:55 PM,14.9,11.7,87,30.37,10.0,Calm,Calm,-,N/A,,Clear,0,2013-02-21 04:55:00
11:15 PM,14.2,12.2,92,30.37,10.0,Calm,Calm,-,N/A,,Clear,0,2013-02-21 05:15:00
11:35 PM,14.9,12.6,90,30.38,10.0,Calm,Calm,-,N/A,,Clear,0,2013-02-21 05:35:00
11:55 PM,14.0,12.2,93,30.38,10.0,Calm,Calm,-,N/A,,Clear,0,2013-02-21 05:55:00